Wind_Speed
32 34 35 35 36 37 38 38 37 37 36 35 35 35 35 35 34 35 33 32 30 29 28 27 26 25 24 24 23 22 21 20 18 18 17 16 16 16 16 16 16 15 15
30 31 33 35 37 39 40 41 41 41 41 40 40 40 39 39 39 40 39 38 36 34 32 30 29 28 27 27 26 25 24 24 23 21 21 20 19 19 18 18 18 17 17
28 29 31 32 35 38 40 42 43 44 44 44 43 42 42 41 42 41 42 41 40 39 37 34 33 31 30 29 29 28 28 27 26 26 25 24 23 21 21 20 20 20 19
26 27 28 30 33 34 37 39 42 44 44 44 43 43 41 41 40 39 39 39 41 41 39 37 37 36 34 34 33 31 31 30 29 29 28 27 26 25 23 22 22 22 21
24 25 26 28 31 33 34 36 37 40 42 43 43 41 41 41 39 37 37 38 38 39 39 39 38 38 38 37 35 34 33 32 31 31 31 30 29 29 27 26 25 24 23
21 23 24 27 29 32 33 35 36 38 39 40 41 40 39 39 38 38 37 36 37 38 39 40 39 39 39 38 37 35 34 34 33 33 33 33 32 31 31 29 28 27 26
21 22 24 26 28 30 32 34 36 37 38 39 39 38 38 38 38 36 36 35 35 36 38 40 41 40 40 39 37 36 35 35 34 33 34 34 34 34 34 32 31 29 29
21 23 24 26 28 30 31 34 36 37 37 38 38 38 37 36 34 35 34 33 32 33 35 38 39 39 39 39 37 36 36 35 34 34 34 35 35 36 36 35 34 32 31
22 23 25 27 28 30 31 32 35 36 37 37 38 38 36 33 33 31 31 29 29 29 30 32 34 35 37 37 37 37 35 35 34 34 34 35 36 36 37 36 35 33 32
24 25 26 27 29 29 30 31 33 35 36 37 37 37 35 33 32 30 28 28 28 27 28 29 30 31 33 34 35 35 35 34 33 33 34 34 35 36 37 37 35 34 33
26 26 26 27 29 30 30 30 32 33 35 36 37 37 36 35 33 31 29 29 29 28 27 27 28 29 29 30 32 33 33 32 32 32 32 33 33 35 35 36 35 35 34
27 27 27 29 30 30 30 31 31 32 33 35 36 37 38 36 35 34 33 32 31 30 29 28 29 29 29 29 29 30 31 31 31 30 30 31 31 33 35 35 35 35 35
29 28 28 29 30 30 31 31 31 32 32 33 34 36 37 38 37 37 36 35 34 33 32 31 31 31 31 31 30 30 30 30 31 30 30 31 31 33 34 35 35 35 35
30 29 28 29 30 30 31 31 31 32 31 31 32 33 35 37 38 38 37 36 36 35 34 33 33 33 33 33 32 32 31 31 32 32 31 32 32 34 35 36 36 35 34
31 30 30 29 30 30 30 31 31 32 31 30 31 32 33 34 36 37 37 37 37 37 36 35 34 34 34 33 32 32 32 32 33 33 33 34 33 35 36 36 36 35 34
32 31 31 30 30 30 30 31 31 31 30 30 30 31 31 33 34 35 36 37 37 37 37 36 35 34 33 32 31 32 31 30 31 31 32 34 35 35 36 37 37 37 36
35 33 32 31 31 31 30 30 30 30 30 29 29 29 29 31 32 33 34 35 35 35 35 34 34 34 34 32 30 29 28 29 29 30 31 31 33 33 35 37 37 37 37
37 35 34 33 32 31 31 30 30 30 30 29 28 27 27 28 29 30 31 32 33 33 33 33 33 33 32 31 30 29 28 27 27 28 28 29 30 32 33 35 37 37 37
41 38 37 36 34 33 32 31 30 29 29 28 27 27 26 26 27 28 29 30 30 31 31 31 31 31 30 30 30 30 29 28 27 27 27 28 28 29 31 33 35 36 37
47 44 42 40 38 36 34 32 31 30 29 28 27 27 25 24 24 26 27 28 28 29 29 29 29 29 30 31 30 28 29 27 27 26 25 25 25 25 26 27 29 30 32
53 50 47 44 41 38 36 34 32 31 29 28 27 26 24 23 22 23 23 25 26 26 27 27 28 29 29 29 28 27 26 25 25 24 23 23 22 22 22 23 25 26 28
60 56 52 49 45 42 39 36 34 32 30 28 27 25 24 23 22 21 21 23 25 26 26 28 29 30 29 26 25 25 25 24 23 23 22 21 21 21 21 22 23 25 26
66 62 56 51 47 44 41 38 36 33 31 29 27 25 24 22 22 22 22 23 25 27 28 28 28 28 27 26 24 23 22 21 20 19 19 19 19 19 19 20 21 22 24
69 65 58 52 48 45 42 39 37 34 31 29 27 25 23 22 21 22 22 24 24 24 26 26 25 24 23 22 21 20 19 19 18 17 16 16 16 17 17 18 19 21 23
65 61 56 52 48 46 43 40 37 34 31 29 27 24 23 22 21 21 22 23 23 24 24 23 22 20 19 20 19 18 17 16 14 14 13 14 14 14 15 16 18 20 22
56 54 52 49 46 44 42 40 37 33 30 28 25 24 22 21 20 21 20 20 21 21 21 20 19 18 17 17 16 14 14 13 12 12 12 12 12 12 13 15 17 19 21
Wind_Direction
282 280 276 273 272 270 270 269 268 268 268 268 268 268 268 266 265 264 263 261 260 260 261 259 258 259 259 260 260 259 259 257 255 254 252 249 247 246 245 246 249 250 250
285 282 279 276 273 272 270 268 268 269 268 268 268 269 270 270 269 267 265 262 260 258 258 258 257 257 258 259 258 258 259 259 257 256 255 254 251 248 246 245 246 247 249
289 286 283 281 278 276 275 272 269 268 268 268 268 269 270 271 272 272 268 265 262 259 258 257 256 256 257 257 258 259 259 259 259 257 256 254 253 251 248 245 245 245 246
293 291 288 286 283 282 280 278 274 271 271 270 270 269 270 272 273 273 270 268 263 260 259 258 258 257 257 258 258 259 259 259 258 257 256 254 253 252 250 246 245 245 244
299 299 296 293 289 287 285 283 279 276 274 273 273 273 272 272 273 274 274 271 265 260 259 258 259 257 258 259 258 258 259 260 260 258 256 254 253 251 250 247 246 245 244
303 304 302 299 295 292 290 287 285 281 278 276 276 276 275 275 274 274 274 272 266 261 259 258 258 259 258 257 257 258 259 261 261 259 257 254 253 250 248 248 247 245 244
309 310 308 304 300 296 293 289 286 284 282 279 278 278 277 275 274 275 273 272 267 262 259 259 257 258 256 255 255 258 260 261 262 260 258 255 253 250 247 246 246 245 244
311 313 313 311 307 302 297 292 289 285 282 280 279 278 278 277 277 275 274 273 269 264 261 258 256 256 255 254 254 258 259 261 260 260 259 256 253 249 246 245 245 247 246
311 312 314 313 311 307 302 295 290 286 282 281 280 279 278 276 274 273 273 273 272 267 262 258 257 254 254 254 254 255 258 259 259 259 258 255 252 248 244 243 243 245 246
308 310 312 313 313 310 306 300 293 288 283 280 279 278 276 273 272 271 270 272 274 270 264 261 260 257 254 254 254 253 255 256 259 260 258 255 252 247 242 240 241 243 246
301 305 309 312 314 312 309 305 299 292 286 281 278 275 273 271 269 269 267 268 270 270 267 263 260 256 254 256 255 252 252 253 257 259 255 253 250 244 239 238 239 243 245
296 301 306 310 313 313 310 307 305 298 291 284 279 274 271 269 267 266 265 264 264 265 264 262 261 258 257 257 256 252 251 252 255 255 253 250 248 242 238 237 239 243 246
292 297 302 307 310 311 311 309 307 303 296 288 281 275 270 267 265 264 264 263 263 263 262 262 262 260 259 259 258 255 254 253 254 253 250 247 245 241 238 238 240 243 246
290 293 298 302 305 308 309 309 308 306 300 292 285 279 272 268 265 263 263 262 262 262 262 263 262 261 260 260 259 258 255 254 252 251 248 246 244 241 239 240 241 243 245
289 292 295 299 302 304 306 307 308 307 303 298 290 282 276 270 266 263 262 261 262 261 261 261 261 261 261 260 259 258 255 253 251 250 249 247 246 243 242 241 241 242 243
288 290 293 295 298 301 303 305 307 307 304 300 294 286 278 272 267 264 261 260 260 260 259 259 259 260 260 259 258 256 254 251 250 250 249 248 249 247 243 241 240 240 240
287 288 291 293 296 298 300 302 304 305 304 302 298 290 281 273 268 263 261 259 258 257 257 256 256 257 257 257 254 252 250 248 250 250 250 249 248 247 245 241 240 239 240
286 286 289 290 293 295 296 298 300 303 303 301 298 293 284 275 268 263 260 257 255 253 254 254 254 253 252 250 249 246 246 247 250 250 250 250 250 248 246 244 242 240 241
283 284 286 287 289 291 292 294 295 299 300 299 296 293 286 277 269 262 257 254 251 250 250 251 250 248 246 245 246 246 245 247 250 251 252 252 251 250 249 249 246 244 242
279 280 282 284 286 287 287 288 291 293 295 294 293 291 286 278 270 262 255 251 247 245 244 245 244 242 240 240 242 243 244 247 249 250 251 251 250 249 250 251 250 249 248
277 277 279 281 282 283 284 284 286 287 289 289 288 286 282 276 270 262 252 246 244 242 241 239 239 236 236 237 238 242 245 245 245 246 247 248 247 247 248 250 252 254 254
275 275 275 277 277 277 278 278 280 281 282 283 283 282 278 272 268 259 251 247 241 238 235 236 240 240 240 237 237 240 241 241 242 243 244 245 246 247 249 252 254 257 259
274 274 274 273 273 273 272 272 273 274 276 277 277 277 274 270 265 257 250 245 241 238 237 237 238 241 240 236 236 235 237 237 238 241 241 244 246 248 251 255 258 260 262
272 271 270 267 266 266 265 266 265 267 268 269 271 271 269 265 260 255 248 243 241 239 236 235 235 233 230 231 232 232 233 234 236 238 240 244 246 250 254 258 262 265 267
266 265 263 260 258 257 257 258 258 258 261 262 264 264 262 258 252 247 244 240 238 235 235 232 229 228 230 230 229 228 226 226 229 234 239 244 249 255 260 266 270 273 276
259 256 252 249 246 245 247 249 249 249 251 253 254 254 253 249 244 238 235 233 230 227 226 222 221 221 219 217 214 214 215 219 225 232 238 244 251 259 267 274 279 282 285
Height
5879 5878 5877 5875 5874 5874 5873 5872 5871 5871 5871 5870 5870 5869 5869 5869 5868 5868 5868 5869 5869 5870 5870 5871 5871 5871 5872 5872 5873 5873 5874 5875 5875 5876 5876 5877 5877 5878 5879 5880 5881 5882 5883
5872 5870 5869 5868 5867 5865 5864 5864 5863 5863 5862 5862 5862 5861 5861 5860 5860 5860 5860 5860 5861 5862 5862 5863 5864 5865 5865 5866 5867 5868 5868 5869 5870 5871 5872 5873 5873 5874 5875 5876 5877 5878 5879
5865 5863 5862 5861 5859 5857 5856 5855 5854 5853 5852 5852 5852 5852 5852 5852 5851 5851 5851 5851 5852 5853 5854 5855 5856 5857 5858 5859 5860 5861 5862 5863 5864 5865 5866 5867 5869 5869 5870 5871 5872 5873 5875
5858 5856 5855 5853 5851 5849 5848 5847 5845 5844 5842 5842 5841 5841 5841 5842 5842 5841 5841 5841 5842 5843 5845 5846 5847 5849 5850 5851 5852 5853 5854 5856 5857 5858 5859 5861 5863 5864 5865 5866 5867 5869 5870
5852 5850 5848 5846 5844 5842 5840 5838 5836 5835 5834 5833 5832 5831 5831 5832 5832 5831 5831 5831 5832 5833 5835 5836 5838 5840 5841 5843 5844 5845 5847 5848 5849 5850 5852 5853 5855 5857 5859 5860 5862 5863 5865
5846 5844 5841 5839 5836 5834 5832 5829 5828 5826 5825 5824 5823 5822 5822 5822 5822 5822 5822 5821 5822 5823 5825 5826 5828 5830 5832 5834 5836 5837 5838 5840 5841 5842 5844 5846 5848 5850 5852 5854 5856 5857 5859
5840 5837 5835 5832 5829 5826 5824 5822 5819 5818 5817 5815 5813 5813 5813 5813 5813 5813 5812 5812 5813 5814 5815 5816 5819 5821 5823 5825 5827 5829 5830 5831 5833 5834 5835 5837 5839 5841 5844 5847 5849 5850 5852
5834 5831 5828 5825 5822 5819 5816 5813 5811 5809 5808 5806 5805 5804 5804 5805 5805 5804 5804 5804 5804 5805 5806 5807 5809 5811 5813 5815 5818 5820 5821 5823 5824 5825 5826 5828 5830 5832 5835 5838 5841 5843 5845
5828 5825 5822 5818 5815 5811 5808 5805 5802 5800 5799 5797 5795 5795 5796 5797 5797 5796 5796 5796 5796 5796 5797 5798 5800 5802 5804 5806 5809 5811 5813 5814 5815 5816 5817 5818 5820 5823 5826 5830 5833 5835 5838
5821 5818 5815 5811 5808 5804 5800 5797 5794 5792 5790 5789 5787 5786 5787 5788 5788 5789 5789 5789 5789 5790 5790 5791 5792 5794 5796 5797 5800 5802 5804 5805 5806 5807 5808 5809 5811 5814 5817 5821 5824 5827 5830
5815 5812 5808 5805 5801 5797 5793 5789 5786 5783 5781 5779 5778 5778 5778 5779 5780 5781 5782 5782 5782 5783 5783 5784 5785 5786 5788 5789 5791 5793 5795 5797 5798 5798 5799 5801 5803 5805 5809 5813 5816 5819 5822
5808 5804 5801 5797 5793 5789 5786 5782 5778 5775 5772 5770 5769 5769 5769 5770 5771 5772 5774 5775 5775 5776 5776 5777 5778 5779 5780 5781 5782 5785 5786 5788 5789 5790 5791 5793 5795 5798 5801 5805 5809 5811 5814
5800 5797 5793 5790 5786 5782 5778 5774 5771 5767 5764 5762 5760 5759 5759 5761 5762 5763 5765 5766 5767 5768 5768 5769 5770 5771 5772 5773 5775 5776 5778 5780 5781 5782 5784 5786 5788 5791 5794 5798 5801 5804 5806
5792 5789 5786 5782 5778 5775 5771 5767 5763 5759 5756 5753 5751 5750 5749 5750 5751 5753 5755 5756 5757 5758 5759 5761 5761 5762 5763 5765 5766 5768 5769 5771 5773 5775 5776 5778 5781 5783 5787 5790 5793 5796 5798
5782 5780 5777 5774 5770 5767 5763 5759 5755 5752 5748 5745 5743 5741 5740 5741 5741 5743 5745 5746 5748 5749 5750 5751 5752 5753 5755 5756 5758 5759 5761 5763 5765 5767 5769 5771 5773 5776 5779 5782 5785 5788 5790
5772 5770 5768 5765 5762 5759 5755 5751 5748 5744 5741 5737 5735 5733 5732 5731 5732 5733 5734 5736 5737 5739 5740 5742 5743 5745 5746 5748 5749 5751 5753 5755 5757 5759 5761 5763 5766 5768 5771 5773 5776 5779 5782
5761 5760 5758 5755 5753 5750 5747 5744 5740 5737 5733 5730 5727 5725 5723 5722 5722 5723 5724 5726 5727 5729 5731 5733 5735 5736 5738 5740 5742 5743 5745 5747 5749 5751 5753 5755 5757 5759 5762 5764 5767 5770 5773
5750 5748 5747 5745 5743 5741 5738 5735 5732 5729 5726 5723 5720 5717 5715 5714 5714 5714 5715 5717 5718 5720 5722 5724 5726 5728 5730 5732 5734 5737 5738 5740 5742 5744 5746 5748 5750 5751 5754 5756 5759 5761 5764
5737 5736 5735 5734 5733 5731 5729 5726 5724 5721 5718 5715 5712 5710 5707 5706 5705 5706 5707 5708 5710 5712 5714 5716 5718 5720 5722 5725 5727 5730 5732 5734 5736 5737 5739 5741 5742 5744 5746 5748 5751 5753 5756
5723 5723 5722 5722 5721 5720 5719 5717 5715 5713 5710 5708 5705 5703 5700 5699 5698 5698 5699 5700 5702 5704 5706 5709 5711 5712 5715 5717 5720 5722 5725 5727 5729 5731 5732 5734 5736 5737 5739 5742 5744 5746 5748
5706 5707 5708 5708 5709 5708 5708 5707 5706 5704 5702 5700 5698 5696 5694 5692 5691 5691 5692 5693 5695 5697 5699 5701 5704 5706 5708 5711 5713 5716 5718 5720 5723 5725 5727 5728 5730 5732 5733 5735 5738 5739 5741
5688 5690 5692 5694 5695 5696 5696 5696 5695 5694 5693 5691 5690 5688 5687 5685 5685 5684 5685 5687 5689 5690 5692 5695 5698 5700 5702 5704 5707 5710 5713 5715 5718 5720 5721 5723 5725 5727 5728 5730 5732 5733 5735
5667 5671 5674 5677 5679 5681 5683 5684 5685 5684 5684 5683 5681 5680 5679 5679 5678 5678 5679 5680 5682 5684 5687 5689 5691 5694 5696 5699 5702 5704 5707 5710 5712 5714 5716 5718 5720 5721 5723 5724 5726 5727 5728
5646 5650 5655 5659 5663 5666 5669 5672 5673 5674 5674 5674 5673 5673 5672 5672 5672 5672 5673 5675 5676 5679 5681 5683 5686 5688 5690 5693 5697 5700 5702 5705 5707 5710 5712 5714 5715 5717 5718 5719 5720 5721 5722
5622 5628 5635 5641 5646 5651 5655 5658 5661 5663 5664 5665 5665 5665 5665 5665 5666 5667 5668 5669 5671 5673 5676 5678 5681 5683 5686 5689 5693 5695 5698 5701 5704 5706 5708 5710 5711 5712 5713 5714 5715 5715 5715
5600 5606 5614 5621 5628 5635 5640 5645 5649 5652 5654 5656 5657 5657 5658 5659 5660 5662 5663 5664 5666 5669 5672 5674 5677 5680 5683 5686 5689 5692 5695 5698 5700 5702 5704 5706 5707 5708 5709 5709 5709 5709 5708